Dewpoint
67 69 69 69 70 70 69 70 69 69 67 71 70 71 71 72 68 69 72 72 71 73 73 73 73 73 71 73 70 74 76 75 74 77 77 77 77 77 77 76 76 75 76 75 71 73 77 76 77 76 78 75 76 72 72 73 77 76 75 79 75 76 75 75 73 73 75 76 75 72 70 70 68 74 72 71 70 75 71 71 75 70 68 67 66
68 70 69 68 67 68 69 69 69 69 67 66 68 68 69 71 70 71 69 71 71 70 72 71 73 73 71 71 73 73 75 77 71 74 75 76 74 71 72 77 77 76 76 76 75 72 75 77 76 74 76 74 72 69 69 68 69 69 75 74 78 76 76 75 75 75 73 75 75 76 72 70 69 77 71 70 70 75 71 71 67 67 67 68 67
69 69 69 67 68 67 67 68 68 68 66 65 65 65 67 68 70 70 68 69 70 71 71 70 75 75 74 74 76 74 75 73 73 74 75 75 74 71 71 75 76 74 73 74 73 75 74 76 73 73 69 71 73 70 67 68 73 73 70 72 74 74 76 78 77 75 74 74 76 72 73 75 74 72 72 71 74 71 74 71 64 62 64 66 66
68 71 71 70 65 65 67 67 66 66 65 65 64 65 65 66 69 70 69 68 68 72 72 72 76 76 74 75 74 75 74 73 72 72 74 75 74 75 76 75 74 74 73 72 71 73 72 74 71 71 72 75 77 77 75 74 74 80 74 78 76 76 77 75 77 77 76 74 76 74 74 74 73 72 70 70 69 72 71 70 72 68 67 65 64
73 71 70 69 69 65 63 64 65 65 64 63 63 63 63 64 68 69 69 68 69 70 72 72 75 75 72 72 73 75 73 75 74 71 72 72 73 72 74 75 74 74 74 74 73 75 74 72 72 73 74 74 75 73 71 73 73 75 75 73 76 77 78 78 77 76 75 74 74 74 75 74 73 73 72 70 71 71 75 76 72 70 71 68 63
74 68 72 72 73 72 66 64 64 64 64 63 62 62 62 63 64 67 68 70 70 69 70 70 72 73 73 73 73 74 76 75 75 74 71 71 73 73 74 75 73 74 73 72 73 73 72 74 74 73 74 72 71 73 76 76 75 73 73 75 75 76 77 76 77 76 75 75 74 72 74 73 72 74 76 74 71 68 69 71 73 73 73 72 67
75 74 75 72 71 71 68 69 67 64 65 64 63 63 62 62 62 65 68 69 69 68 69 70 71 70 73 73 72 75 75 73 76 76 74 74 74 73 71 74 74 74 73 72 71 71 70 70 72 72 72 73 71 71 73 72 70 73 76 76 76 75 74 74 75 75 74 73 72 72 71 73 74 70 70 71 70 70 69 71 72 73 74 75 73
75 75 75 74 73 69 68 67 66 71 72 73 70 64 62 62 63 65 69 68 68 68 68 68 68 70 71 72 73 73 74 73 75 76 74 73 73 73 74 73 74 73 72 73 72 71 71 70 69 69 71 73 72 73 74 73 76 73 72 76 77 77 76 75 75 75 74 72 72 70 72 72 72 71 71 71 72 75 76 68 65 72 72 75 72
76 76 76 75 75 76 75 74 74 75 75 76 77 73 69 66 67 70 70 67 66 67 67 67 67 69 69 72 72 72 71 72 73 73 73 73 72 72 73 73 73 73 72 71 71 72 71 69 67 67 72 74 72 73 75 77 72 77 78 77 77 76 76 75 73 75 75 73 72 73 72 71 71 72 72 73 70 66 67 72 72 71 70 69 71
75 76 76 76 77 76 76 76 77 78 77 76 75 75 72 71 67 66 68 68 70 73 72 70 67 67 68 71 71 70 69 70 74 74 74 74 74 71 71 74 74 75 75 73 71 70 69 68 67 70 69 70 70 75 76 75 76 71 75 76 78 77 77 76 75 74 73 73 72 71 70 68 66 65 66 67 65 71 72 72 71 72 72 72 73
73 73 74 75 76 76 75 76 76 76 75 76 77 77 77 76 75 74 73 73 74 74 73 72 67 69 68 68 69 69 68 68 71 68 69 72 73 74 74 75 75 75 73 74 75 72 70 69 67 68 74 76 78 78 76 75 76 76 75 76 76 76 74 74 73 73 74 72 72 71 68 69 69 69 68 63 69 73 73 73 72 73 73 72 71
72 72 72 73 74 74 75 75 74 74 73 73 74 75 75 75 76 75 74 73 74 72 71 70 71 70 68 68 67 67 68 72 65 65 67 68 73 73 70 69 68 71 72 71 72 71 69 67 65 62 73 73 75 77 76 75 74 75 75 75 75 75 75 73 73 73 73 71 71 71 70 70 70 70 67 68 73 72 73 74 74 74 74 73 73
73 72 73 73 73 73 74 73 73 73 72 72 72 72 73 73 73 74 74 74 75 73 73 72 72 73 71 70 67 66 68 68 64 64 65 65 67 73 67 66 64 64 69 72 71 71 74 75 72 68 65 68 71 73 77 76 76 73 74 75 75 74 70 70 72 74 73 73 71 70 70 70 71 72 73 72 74 74 75 74 74 75 74 74 73
73 72 72 72 73 73 73 73 72 72 73 73 73 71 70 72 73 76 76 76 74 73 72 73 73 73 72 72 73 71 69 65 62 62 63 64 66 70 69 65 65 65 69 68 65 70 75 72 72 72 73 75 75 75 75 78 77 76 76 76 75 75 75 71 69 70 72 71 70 70 71 74 73 74 76 77 75 74 75 75 75 73 73 72 73
70 71 71 71 72 73 72 73 72 72 73 73 74 74 74 75 73 75 76 75 74 74 75 74 73 72 71 70 70 68 68 63 62 62 63 64 66 71 71 67 67 69 69 70 73 70 71 70 73 72 74 76 77 78 76 73 75 74 77 76 76 76 76 75 75 73 72 71 71 71 71 72 73 75 75 78 77 76 76 74 74 74 74 74 74
69 69 68 69 70 71 71 71 71 71 71 72 72 72 72 72 72 73 75 75 75 75 75 74 73 72 73 72 70 69 67 61 61 61 60 61 65 71 73 74 72 70 69 70 71 74 73 72 72 73 74 76 74 71 75 78 77 76 75 75 74 72 70 73 66 67 74 73 75 72 71 69 67 70 71 70 73 77 75 75 74 74 73 73 72
68 69 69 69 70 71 71 70 69 69 70 70 70 71 71 71 72 73 73 73 74 74 74 72 73 72 72 72 73 72 70 62 59 58 59 61 68 72 73 73 73 72 71 73 75 72 73 75 74 73 74 74 70 62 65 76 77 74 76 74 73 72 71 70 68 65 65 64 63 64 64 63 63 63 62 63 68 70 73 72 72 73 73 72 72
66 67 68 69 70 71 70 70 70 70 70 70 70 70 71 71 71 73 73 73 73 73 74 74 73 73 72 72 72 71 70 62 57 57 58 60 67 72 75 76 74 74 74 74 74 74 73 75 74 72 73 72 61 61 63 73 74 75 74 73 72 71 71 69 69 71 69 69 69 69 68 68 67 66 67 66 64 68 73 72 73 74 73 72 70
66 66 65 67 69 70 69 69 70 69 69 69 69 70 71 71 72 72 72 72 73 73 73 73 72 73 72 72 72 71 68 64 56 56 57 59 67 73 76 75 74 74 74 74 73 74 74 74 74 72 70 66 58 59 62 71 71 72 73 72 71 71 71 71 71 71 72 72 73 75 75 75 77 78 77 74 72 74 74 74 75 75 73 72 72
64 64 64 65 67 68 68 69 68 68 68 68 69 70 70 71 71 72 72 72 72 72 71 72 72 72 72 72 72 69 67 65 62 55 56 57 60 71 76 74 73 73 73 73 73 72 73 73 70 62 60 59 57 56 57 60 70 71 72 71 71 71 70 70 71 71 72 71 72 73 74 75 76 76 76 76 76 76 79 78 76 75 74 71 71
64 65 65 63 63 65 67 67 67 68 68 69 69 69 70 70 71 70 70 70 71 70 69 69 69 70 71 70 69 68 67 65 63 55 55 56 58 66 71 68 70 72 72 73 72 71 72 73 73 63 58 58 56 55 54 57 63 70 71 72 72 69 67 68 70 71 70 71 72 73 74 75 75 74 75 75 74 74 77 76 75 76 75 72 71
62 62 64 64 64 64 64 68 67 66 68 69 69 69 70 71 70 69 69 69 68 69 69 69 68 69 70 69 69 69 69 68 67 58 56 55 56 60 67 67 66 70 72 71 72 71 72 71 72 65 58 58 57 54 53 55 59 67 70 63 59 61 68 68 67 67 68 70 70 72 73 73 71 73 73 74 73 73 75 75 75 75 74 75 73
58 59 62 63 63 64 65 65 64 64 65 67 68 69 70 70 70 71 71 70 70 68 68 69 69 69 68 69 68 68 68 68 66 65 58 55 55 56 58 64 61 69 68 70 72 72 72 71 72 67 58 56 54 54 53 54 59 64 60 60 59 60 66 67 68 68 68 68 72 74 73 73 72 73 74 73 72 74 73 73 73 73 74 76 76
59 58 58 60 60 63 63 63 64 65 66 67 68 68 68 68 70 71 70 69 69 68 69 67 67 67 66 67 67 67 67 67 66 66 64 58 56 55 57 56 59 65 67 69 71 70 69 68 67 58 53 50 50 51 53 57 62 58 57 57 59 63 66 68 66 68 69 70 72 72 72 73 73 73 73 74 74 75 74 73 72 71 73 75 75
57 55 56 56 58 58 60 62 63 64 63 65 66 68 66 67 66 65 66 66 68 68 69 68 68 68 67 67 67 66 66 66 66 67 65 62 58 57 59 57 59 58 67 67 66 67 64 57 54 54 54 53 53 53 57 60 56 55 55 56 65 67 69 69 70 71 72 71 71 70 69 69 71 73 72 73 73 73 74 73 71 71 72 73 74
58 58 56 54 54 55 57 59 60 56 60 60 62 64 63 62 66 67 66 67 67 67 66 65 66 67 67 67 66 66 67 66 66 64 64 66 63 59 58 59 68 71 69 66 66 61 58 56 55 54 57 59 66 69 70 71 67 63 61 64 67 67 69 71 71 72 71 68 67 67 66 66 67 69 71 71 70 71 71 70 69 68 69 69 69
59 58 58 53 54 55 53 54 59 58 58 64 59 58 65 62 60 59 58 56 58 61 61 63 65 62 63 63 64 65 63 61 61 62 62 62 62 62 67 69 70 68 68 64 63 61 63 67 66 63 62 62 63 63 64 65 67 69 70 70 68 68 70 72 71 68 66 64 64 63 63 65 67 69 68 68 69 70 69 69 67 66 67 67 68
54 54 52 51 52 52 49 53 56 52 54 57 52 50 54 58 58 52 50 50 52 54 56 59 58 59 59 62 63 62 60 59 57 57 58 57 58 60 61 62 61 63 61 59 59 61 63 65 63 67 67 67 67 67 67 68 68 68 68 65 61 64 66 65 64 62 61 62 63 65 65 68 67 65 65 66 67 68 70 69 68 67 67 67 66
57 56 55 57 64 59 57 54 53 54 54 57 54 54 53 52 55 54 55 56 53 50 53 53 56 58 59 59 61 61 59 57 56 51 53 48 52 56 58 58 57 58 58 52 57 61 63 61 62 61 65 67 67 67 66 70 69 67 62 62 59 63 63 60 57 57 58 59 60 63 63 63 63 63 64 64 67 67 69 67 68 67 68 68 66
54 54 53 50 52 54 54 51 53 54 51 53 51 53 55 50 54 53 53 55 48 47 51 56 56 59 60 57 58 56 55 56 49 45 43 43 43 43 43 41 41 49 51 49 53 58 62 62 63 63 66 64 62 64 59 59 63 59 60 59 61 59 59 58 58 58 58 60 60 58 58 58 59 62 62 60 61 61 63 63 66 67 66 64 62
55 52 53 52 54 55 51 52 56 59 56 54 56 55 52 55 45 45 51 51 46 41 41 42 46 50 60 54 52 51 50 46 43 43 43 43 42 41 41 41 40 40 42 53 61 63 62 61 62 65 66 63 62 62 62 63 59 59 57 62 62 60 59 59 60 62 60 58 58 57 57 58 60 58 55 56 58 58 60 61 60 61 60 60 59
57 55 53 53 56 58 55 55 55 55 58 59 58 60 57 55 56 46 43 47 46 42 41 42 42 43 46 53 60 57 50 43 40 42 42 43 43 42 41 41 41 41 42 44 59 63 62 61 61 63 61 58 58 60 56 54 57 59 62 60 59 60 60 60 63 61 60 56 57 56 57 58 56 55 55 56 56 57 58 57 58 57 57 57 58
50 50 51 54 55 55 54 55 55 54 55 56 57 57 58 58 55 54 56 43 43 43 43 44 43 42 42 42 44 47 46 44 41 41 41 43 42 43 41 42 44 42 45 56 63 61 61 61 60 60 58 60 61 59 59 58 59 60 59 61 61 59 61 62 63 59 57 57 56 55 55 56 56 56 56 56 57 56 57 56 56 56 56 56 56
52 52 53 54 55 56 54 54 54 56 56 56 55 56 56 56 55 55 55 54 56 52 44 42 43 43 41 41 43 43 41 40 41 41 42 42 42 43 42 49 46 44 49 60 62 62 62 60 58 58 58 58 56 56 58 58 59 60 59 57 57 60 62 60 60 57 56 56 55 55 56 55 56 56 56 56 57 56 56 54 55 55 55 55 55
53 52 52 52 53 54 53 53 54 55 53 54 54 53 52 53 54 54 55 54 55 58 55 57 48 41 53 48 44 41 43 43 43 42 42 42 43 42 46 60 61 58 56 59 62 61 61 61 60 60 59 58 58 58 59 59 60 58 56 56 56 56 58 58 57 59 57 56 56 56 56 56 57 56 55 55 55 55 54 54 53 54 54 54 53
51 51 51 51 51 52 51 52 54 52 53 54 54 53 52 53 52 52 52 54 53 54 54 56 56 51 46 43 40 39 41 43 42 42 42 43 42 46 58 57 57 58 60 63 61 62 61 61 60 60 61 62 59 58 57 57 57 57 57 57 56 56 56 55 55 56 56 57 57 58 56 57 56 55 53 53 54 54 53 53 52 52 52 50 51
49 49 49 48 49 51 52 53 54 53 49 52 53 54 52 52 52 52 52 52 51 52 53 57 57 56 53 58 51 43 42 43 43 43 42 43 40 53 55 57 58 58 57 54 57 59 60 58 59 63 63 62 62 59 59 58 58 57 58 58 58 57 55 56 56 58 58 56 57 58 56 54 54 54 52 52 52 52 51 51 51 50 51 51 52
50 50 49 47 49 53 53 55 50 49 56 54 57 57 53 52 51 51 50 52 51 51 54 54 55 53 54 57 53 51 51 47 45 47 44 43 51 56 57 57 56 56 55 56 57 57 57 57 57 56 56 56 58 59 59 59 58 56 56 57 58 57 56 56 57 57 56 54 53 53 52 52 53 52 52 52 51 51 50 50 49 49 49 50 49
52 50 48 46 46 50 49 49 50 50 55 55 54 52 52 50 51 51 51 51 52 51 52 51 51 52 51 50 51 50 51 48 48 51 52 53 55 54 55 55 54 54 54 54 55 55 55 54 55 54 54 54 54 54 55 56 56 56 57 55 54 55 54 53 54 55 53 52 51 52 52 52 51 52 52 51 50 50 49 49 49 49 48 47 48
49 49 46 47 47 45 46 48 49 51 50 50 51 52 50 51 51 51 50 50 52 53 50 51 51 50 49 49 48 48 47 46 47 49 50 51 52 52 53 53 53 53 52 53 53 53 53 52 52 52 53 53 52 52 52 52 52 53 53 52 52 52 53 53 53 52 51 52 51 52 51 52 52 51 50 50 50 49 49 48 48 48 48 47 47
50 50 50 47 46 45 48 48 49 49 48 48 47 48 50 51 52 51 50 49 49 48 48 49 49 48 47 48 44 45 48 46 48 49 49 50 50 50 51 51 51 51 51 51 51 51 52 52 51 50 50 50 51 51 50 50 50 50 50 50 50 50 50 51 50 50 49 49 49 49 49 49 50 49 49 49 50 49 49 48 47 46 46 47 46
48 48 48 49 49 47 45 48 47 49 49 47 48 48 49 48 48 49 48 47 47 46 47 47 49 47 45 43 41 41 47 47 48 48 48 47 49 50 50 50 50 51 50 49 50 50 50 51 50 49 49 49 49 50 49 48 48 48 47 47 48 48 47 47 47 48 48 47 48 48 48 47 47 47 47 48 46 46 46 46 46 46 46 45 45
50 48 48 48 47 46 46 48 47 45 46 47 47 48 48 47 46 46 46 46 45 45 45 46 47 49 48 44 45 43 47 47 46 47 47 47 48 49 49 48 48 48 49 49 49 49 49 48 48 49 49 49 49 48 47 47 48 47 47 47 47 47 46 46 45 45 45 45 45 45 45 45 44 43 43 43 42 42 42 42 42 42 42 43 44
48 47 48 46 46 47 46 45 45 45 46 47 46 46 45 45 44 45 45 44 45 45 43 43 43 43 44 45 45 45 45 45 46 45 46 47 47 48 47 48 48 47 47 48 48 49 47 47 47 47 48 48 48 49 47 47 46 46 46 45 44 44 43 43 43 43 43 43 42 42 42 42 42 41 42 42 41 41 41 42 43 43 43 43 43
46 45 45 45 46 46 45 47 44 44 45 44 44 45 45 43 43 43 42 42 43 44 43 42 42 42 42 42 43 44 44 44 45 45 45 45 46 46 46 46 47 48 46 47 48 49 48 46 46 47 47 47 47 47 46 46 47 45 42 41 40 39 39 40 41 42 41 40 39 39 40 40 40 40 40 40 41 41 40 41 41 43 42 42 42
45 44 44 43 44 45 45 45 46 45 44 43 43 42 42 42 43 42 42 42 42 42 41 41 41 41 41 41 42 42 42 42 42 42 43 45 44 44 45 45 45 46 45 46 47 47 46 46 45 46 46 46 46 46 45 47 46 41 40 39 38 37 37 40 41 38 37 37 37 38 38 38 38 38 40 39 39 39 40 41 41 41 41 42 42
44 44 43 43 42 44 46 46 44 43 43 41 42 41 41 42 41 41 42 41 40 40 39 39 40 39 39 41 41 41 41 41 41 41 42 44 44 43 43 44 44 44 44 44 46 44 46 46 46 46 46 46 46 47 46 44 40 39 38 37 36 36 37 38 37 36 35 36 37 36 36 37 37 38 39 39 40 40 41 40 40 41 41 41 41
44 43 42 42 43 42 42 43 42 42 41 39 39 40 40 40 40 40 39 39 39 38 37 38 39 39 40 40 41 40 40 39 40 40 40 40 41 42 43 43 43 43 43 44 44 43 44 44 45 45 44 45 45 43 44 41 39 37 36 36 36 37 37 39 36 36 36 36 35 36 36 35 35 37 38 39 39 40 40 40 41 41 41 41 42
42 42 41 41 41 40 40 40 42 40 40 40 40 39 38 38 38 38 38 38 38 37 37 38 38 38 39 39 39 38 38 39 39 39 39 39 40 40 41 41 42 41 40 41 41 42 43 43 44 44 44 44 44 43 42 39 38 37 36 35 36 37 37 38 37 37 37 36 35 35 35 35 35 37 38 39 39 39 40 41 41 41 41 42 41
42 41 41 41 40 40 41 40 39 39 39 38 38 38 38 38 37 37 37 37 36 37 37 37 38 37 37 37 38 38 38 37 37 38 38 38 38 39 39 39 39 39 39 39 39 40 41 42 42 42 42 42 42 42 40 38 37 36 36 35 36 35 35 37 37 37 36 36 36 35 35 36 36 37 38 39 39 40 40 41 41 42 41 41 42
41 40 40 39 39 39 39 38 38 38 38 38 37 37 37 36 36 36 36 35 36 37 36 36 37 36 36 37 37 36 37 37 38 37 37 37 38 38 38 38 38 38 38 38 38 38 39 39 39 39 39 39 39 39 39 37 37 37 36 36 34 33 34 35 35 34 36 36 36 36 35 36 37 37 38 38 38 39 41 42 43 43 43 44 45